SCP
0 0 0 0 0 0 0 0 0 0 0 0 0 0 0 0 0 0 0 0 0 0
0 0 0 0 0 0 0 0 0 0 0 0 0 0 0 0 0 0 0 0 0 0
0 0 0 0 0 0 0 0 0 0 0 0 0 0 0 0 0 0 0 0 0 0
0 0 0 0 0 0 0 0 0 0 0 0 0 0 0 0 0 0 0 0 0 0
0 0 0 0 0 0 0 0 0 0 0 0 0 0 0 0 0 0 0 0 0 0
0 0 0 0 0 0 0 0 0 0 0 0 0 0 0 0 0 0 0 0 0 0
0 0 0 0 0 0 0 0 0 0 0 0 0 0 0 0 0 0 0 0 0 0
0 0 0 0 0 0 0 0 0 0 0 0 0 0 0 0 0 0 0 0 0 0
0 0 0 0 0 0 0 0 0 0 0 0 0 0 0 0 0 0 0 0 0 0
0 0 0 0 0 0 0 0 0 0 0 0 0 0 0 0 0 0 0 0 0 0
0 0 0 0 0 0 0 0 0 0 0 0 0 0 0 0 0 0 0 0 0 0
0 0 0 0 0 0 0 0 0 0 0 0 0 0 0 0 0 0 0 0 0 0
0 0 0 0 0 0 0 0 0 0 0 0 0 0 0 0 0 0 0 0 0 0
0 0 0 0 0 0 0 0 0 0 0 0 0 0 0 0 0 0 0 0 0 0
Wind_Speed_500mb
78 75 72 69 68 63 60 55 48 45 44 45 48 51 53 60 60 61 58 59 56 50
81 78 76 73 68 63 57 51 53 50 48 46 51 52 52 54 61 64 55 58 54 46
83 80 77 72 72 63 64 62 58 60 57 52 56 52 57 59 57 50 50 56 45 46
82 81 76 73 69 66 67 65 65 64 62 60 59 60 55 52 44 52 46 51 38 45
80 78 76 72 68 67 68 67 67 65 64 64 62 59 55 55 55 45 44 43 45 41
81 77 69 66 66 67 69 68 66 66 64 62 59 57 52 43 48 48 43 41 45 40
75 73 77 72 67 67 65 63 62 61 59 55 50 50 53 50 47 41 44 44 37 34
63 65 65 61 55 53 51 51 53 55 56 57 50 49 46 36 37 43 44 43 36 35
48 47 45 43 43 44 46 48 48 45 39 32 30 31 34 41 41 42 42 41 38 37
42 41 40 41 43 44 41 36 32 28 25 26 27 32 38 37 36 36 38 38 37 39
40 41 44 44 38 34 30 27 27 25 27 31 31 37 35 36 38 38 39 38 39 41
43 39 37 35 33 31 30 28 30 31 35 36 37 37 38 39 39 42 45 46 43 39
36 36 36 32 30 28 30 29 31 33 33 36 39 36 38 42 44 46 48 46 45 41
41 37 34 35 34 32 29 30 35 35 37 38 39 42 44 42 43 44 48 48 47 41
Wind_Direction_500mb
237 239 239 239 242 246 246 251 248 249 247 245 241 246 252 256 256 256 254 262 262 266
237 238 240 244 245 249 252 245 246 248 247 248 251 256 262 263 265 263 265 263 267 253
237 240 242 243 243 241 240 241 241 245 246 249 252 259 263 268 253 264 251 264 255 264
236 238 241 242 239 236 238 240 242 246 250 254 251 265 264 259 257 265 249 260 255 260
239 240 237 235 231 234 236 238 241 246 249 252 258 259 261 263 261 251 268 246 264 254
234 235 227 224 230 233 234 237 240 245 248 251 253 256 255 235 255 252 252 246 244 225
230 231 234 240 235 233 235 237 239 243 244 243 240 239 240 247 248 249 235 223 217 230
229 230 233 231 226 228 232 236 238 239 243 242 235 236 241 238 230 232 221 216 225 225
219 217 217 218 220 225 230 236 240 241 237 226 225 223 223 231 219 213 225 226 223 220
209 211 213 218 222 226 227 228 229 215 211 210 217 223 222 211 219 230 226 227 226 218
210 212 214 218 220 221 217 211 206 201 212 219 225 214 213 227 223 227 229 226 221 220
217 218 218 217 215 213 209 211 209 212 216 219 215 225 233 227 229 225 226 219 216 216
222 221 219 217 217 213 209 214 212 219 225 229 234 231 233 236 230 227 221 217 217 219
220 219 217 217 213 209 215 220 216 225 226 227 230 235 233 234 235 232 226 222 224 228
Wind_Speed_850mb
78 75 72 69 68 63 60 55 48 45 44 45 48 51 53 60 60 61 58 59 56 50
81 78 76 73 68 63 57 51 53 50 48 46 51 52 52 54 61 64 55 58 54 46
83 80 77 72 72 63 64 62 58 60 57 52 56 52 57 59 57 50 50 56 45 46
82 81 76 73 69 66 67 65 65 64 62 60 59 60 55 52 44 52 46 51 38 45
80 78 76 72 68 67 68 67 67 65 64 64 62 59 55 55 55 45 44 43 45 41
81 77 69 66 66 67 69 68 66 66 64 62 59 57 52 43 48 48 43 41 45 40
75 73 77 72 67 67 65 63 62 61 59 55 50 50 53 50 47 41 44 44 37 34
63 65 65 61 55 53 51 51 53 55 56 57 50 49 46 36 37 43 44 43 36 35
48 47 45 43 43 44 46 48 48 45 39 32 30 31 34 41 41 42 42 41 38 37
42 41 40 41 43 44 41 36 32 28 25 26 27 32 38 37 36 36 38 38 37 39
40 41 44 44 38 34 30 27 27 25 27 31 31 37 35 36 38 38 39 38 39 41
43 39 37 35 33 31 30 28 30 31 35 36 37 37 38 39 39 42 45 46 43 39
36 36 36 32 30 28 30 29 31 33 33 36 39 36 38 42 44 46 48 46 45 41
41 37 34 35 34 32 29 30 35 35 37 38 39 42 44 42 43 44 48 48 47 41
Wind_Direction_850mb
237 239 239 239 242 246 246 251 248 249 247 245 241 246 252 256 256 256 254 262 262 266
237 238 240 244 245 249 252 245 246 248 247 248 251 256 262 263 265 263 265 263 267 253
237 240 242 243 243 241 240 241 241 245 246 249 252 259 263 268 253 264 251 264 255 264
236 238 241 242 239 236 238 240 242 246 250 254 251 265 264 259 257 265 249 260 255 260
239 240 237 235 231 234 236 238 241 246 249 252 258 259 261 263 261 251 268 246 264 254
234 235 227 224 230 233 234 237 240 245 248 251 253 256 255 235 255 252 252 246 244 225
230 231 234 240 235 233 235 237 239 243 244 243 240 239 240 247 248 249 235 223 217 230
229 230 233 231 226 228 232 236 238 239 243 242 235 236 241 238 230 232 221 216 225 225
219 217 217 218 220 225 230 236 240 241 237 226 225 223 223 231 219 213 225 226 223 220
209 211 213 218 222 226 227 228 229 215 211 210 217 223 222 211 219 230 226 227 226 218
210 212 214 218 220 221 217 211 206 201 212 219 225 214 213 227 223 227 229 226 221 220
217 218 218 217 215 213 209 211 209 212 216 219 215 225 233 227 229 225 226 219 216 216
222 221 219 217 217 213 209 214 212 219 225 229 234 231 233 236 230 227 221 217 217 219
220 219 217 217 213 209 215 220 216 225 226 227 230 235 233 234 235 232 226 222 224 228